Theta_e
308 308 308 308 308 308 308 308 309 309 310 310 310 310 310 310 310 309 309 309 309 312 315 318 320 319 319 320 320 319 318 319 318 317 317 317 317 316 314 314 316 316 319 319 318 322 323 322 318 310 305 301 298 298 298 298 298 298 298 298 298 298 298 298 298 298 298 298 297 297 297 297 296 297 296 297 297 297 296 296 300 302 302 303 304
308 308 308 308 308 308 308 308 308 308 309 309 309 309 309 309 309 309 309 308 309 312 316 319 320 320 320 319 319 319 319 318 318 317 318 318 317 317 315 314 314 313 316 315 315 322 323 322 320 314 307 301 299 298 298 298 298 298 298 297 298 298 298 298 298 298 298 297 297 297 297 297 297 297 297 296 296 297 296 296 298 302 304 304 303
308 308 307 308 307 307 308 307 307 308 308 308 308 309 308 309 309 308 308 308 309 312 317 319 319 321 320 317 317 319 320 319 317 317 319 318 317 318 316 315 314 312 314 312 314 322 323 322 320 316 309 303 300 299 298 298 298 298 297 297 298 298 298 298 297 297 297 297 297 297 297 297 297 296 297 296 296 296 296 296 297 300 304 304 304
308 308 307 307 307 307 308 307 308 307 307 308 308 308 308 308 308 308 308 308 310 314 317 318 318 321 320 317 317 318 319 320 319 318 318 318 317 318 317 315 314 311 311 310 314 321 322 321 319 315 310 305 302 299 298 298 297 298 298 298 298 297 297 297 297 297 297 298 297 297 297 296 297 296 296 296 296 296 296 296 296 298 303 304 304
307 308 307 307 307 307 307 307 308 307 307 307 307 308 307 308 307 307 308 308 312 315 318 318 318 320 319 318 319 319 320 320 320 319 318 317 317 318 318 316 315 312 309 308 313 319 321 320 318 315 312 308 306 304 302 300 297 297 298 298 297 297 297 297 297 297 297 297 297 297 297 297 297 296 296 296 295 295 295 296 295 297 301 304 304
307 308 307 307 307 307 307 307 308 308 307 307 307 308 307 308 307 307 308 310 314 317 318 318 319 321 319 319 321 321 321 319 320 320 318 318 318 318 318 318 317 315 310 307 312 318 320 319 317 315 312 309 308 307 305 302 298 298 297 297 297 296 297 297 297 297 297 297 297 297 297 297 297 296 296 296 295 295 295 295 295 295 299 303 303
307 307 308 308 307 307 307 307 308 308 307 307 307 307 307 307 307 307 309 312 316 317 318 318 320 321 320 321 321 321 321 320 320 319 319 319 319 317 318 318 318 317 313 310 313 316 318 317 315 315 313 311 309 305 302 300 298 298 297 296 296 296 297 297 297 297 297 297 297 297 297 297 296 296 296 296 295 295 295 295 296 295 298 302 303
308 308 308 308 308 308 307 307 307 308 308 307 307 307 307 306 307 308 311 314 316 317 318 319 320 320 320 321 321 320 320 320 320 319 319 320 319 318 318 318 318 317 315 314 313 313 314 313 312 313 313 313 312 305 299 297 297 297 297 296 296 296 296 296 296 296 296 297 297 297 297 296 296 296 296 296 295 295 295 294 295 296 298 300 302
309 308 308 308 308 308 308 307 307 307 308 308 307 307 306 306 307 310 313 315 316 318 319 320 321 321 321 321 320 320 320 320 321 319 319 319 318 318 318 318 318 318 317 316 314 311 311 311 309 311 313 312 311 307 299 296 297 297 297 297 296 296 296 296 296 296 296 297 297 297 297 296 296 296 296 296 295 295 295 294 294 295 297 299 301
310 309 308 308 308 308 308 308 307 307 308 308 308 307 307 307 308 311 313 315 317 318 320 321 322 321 321 322 320 319 319 320 321 319 318 318 317 317 318 319 319 318 318 317 316 313 312 311 310 311 311 308 308 306 300 295 297 297 296 297 296 296 296 296 296 296 296 296 297 297 296 296 296 296 296 296 295 295 295 294 294 295 296 298 301
310 309 309 309 308 308 308 308 308 308 308 308 308 308 308 308 309 312 314 315 316 318 319 321 322 322 321 322 321 320 320 320 320 319 318 318 317 318 318 319 319 319 319 318 317 316 314 313 312 310 306 303 304 305 300 296 297 296 296 296 296 296 295 296 296 296 296 296 297 297 296 296 296 296 296 296 295 295 294 294 294 294 295 296 299
311 310 310 310 309 309 309 309 308 308 308 308 309 309 309 309 310 312 314 316 317 318 319 320 322 323 322 321 321 320 320 321 320 319 319 318 318 319 318 318 318 319 319 318 318 317 316 314 313 310 305 300 301 303 300 296 295 295 295 296 296 296 295 295 296 296 296 296 296 296 296 296 296 296 296 295 295 295 294 294 294 294 294 295 297
315 313 312 311 310 310 310 310 309 309 309 309 309 309 309 309 310 313 315 317 317 318 319 320 322 323 322 322 322 321 321 321 321 321 320 319 319 319 319 318 318 318 318 318 318 318 317 316 314 312 308 303 299 300 299 295 295 295 295 295 295 296 296 295 295 295 296 296 296 296 296 296 296 296 296 295 295 295 294 294 294 293 293 294 295
320 317 315 313 312 311 311 311 311 310 310 310 309 309 310 310 311 313 314 316 318 318 319 320 321 322 322 323 323 322 321 321 321 321 320 320 319 319 319 318 318 318 318 318 318 318 317 317 316 314 312 308 301 298 298 296 295 295 295 295 295 295 295 295 295 295 295 295 295 295 295 295 296 296 295 295 295 295 294 294 294 293 293 293 294
323 322 320 318 316 314 313 313 313 312 311 311 310 310 310 310 311 313 314 315 317 318 318 319 321 322 323 323 322 323 322 321 321 320 320 320 320 319 319 318 318 318 318 318 318 317 316 316 316 315 314 313 307 300 297 296 295 295 295 295 295 295 295 295 295 295 295 295 295 295 295 295 295 295 295 295 295 295 294 294 293 293 293 293 293
325 325 324 323 321 319 317 316 315 314 312 312 311 311 311 311 312 312 314 315 317 317 318 318 320 322 323 323 322 322 322 322 322 321 320 320 320 320 319 319 318 318 318 318 317 317 316 316 316 315 314 314 313 306 298 296 295 295 295 295 295 295 295 295 295 295 295 295 295 295 295 295 295 295 294 295 295 294 294 294 293 293 293 293 293
326 326 326 325 325 324 322 320 317 315 314 313 312 313 312 312 312 313 313 315 315 316 318 318 319 321 322 322 322 322 322 322 322 321 321 320 321 320 320 320 319 319 318 318 317 317 316 316 315 315 314 314 314 312 304 298 296 295 295 295 295 295 295 295 295 294 295 294 294 294 294 294 295 295 295 295 295 295 294 293 293 293 293 293 293
323 325 326 326 326 326 325 324 321 318 316 314 313 313 313 313 313 313 313 314 315 317 318 318 319 320 322 322 322 322 323 322 322 322 321 321 321 321 321 321 320 320 320 319 318 317 317 317 316 316 315 314 314 313 310 303 297 296 296 295 295 295 295 294 294 294 294 294 294 294 294 294 294 295 295 295 295 295 294 294 293 293 293 293 293
317 320 322 324 325 325 326 326 324 322 319 316 314 314 314 314 314 314 313 314 315 317 319 319 319 320 321 321 322 322 322 322 322 322 322 321 321 321 321 321 321 320 320 320 319 319 318 318 317 316 316 316 315 314 313 309 302 297 296 296 296 295 295 294 294 294 294 294 294 294 294 294 294 295 296 296 296 296 295 294 293 293 293 292 292
315 315 317 319 320 322 323 325 325 325 323 319 318 316 315 315 314 314 314 314 315 316 318 320 320 319 320 320 321 321 321 321 322 322 322 322 321 321 321 321 321 321 321 321 320 320 320 319 318 318 317 317 316 315 315 313 309 302 297 296 296 296 295 294 294 294 294 294 293 293 293 293 294 295 296 296 297 296 295 293 292 292 292 292 292
317 315 315 316 316 317 319 321 323 325 326 324 322 319 316 315 315 315 315 315 315 316 316 318 320 319 319 320 321 321 321 321 322 322 322 322 322 321 321 320 321 321 321 321 321 321 321 321 319 318 318 317 317 316 315 315 314 309 302 297 296 296 295 294 294 294 294 293 293 293 293 293 294 295 296 297 298 297 295 293 292 292 292 292 292
319 319 317 317 316 316 316 317 318 321 323 325 325 323 320 317 315 315 315 315 315 316 316 317 319 320 320 321 321 321 321 321 322 322 322 321 322 321 321 321 320 320 321 322 322 322 321 322 321 319 319 319 318 317 316 316 315 314 309 302 297 296 295 294 294 294 293 293 293 293 293 293 294 295 297 298 298 297 295 293 292 291 291 291 291
321 321 320 319 319 318 317 317 318 318 319 321 323 325 323 320 317 315 315 315 315 316 316 317 318 319 320 320 321 321 321 321 321 321 321 321 321 321 321 320 320 320 321 322 322 322 322 322 322 321 320 320 319 318 317 316 316 315 313 307 299 296 295 294 293 293 293 293 293 293 293 293 293 295 297 299 299 298 296 294 292 291 291 291 291
322 322 321 321 321 320 319 319 319 319 319 318 319 321 324 324 321 318 316 315 315 316 316 317 317 319 319 320 320 321 321 321 322 321 321 321 321 321 321 321 321 320 321 322 322 323 322 322 322 322 322 321 320 320 319 317 316 315 314 310 303 298 295 294 293 293 293 293 293 293 293 293 293 294 297 299 300 299 298 295 292 290 290 291 291
321 322 321 321 322 322 321 321 321 321 320 320 319 319 321 324 324 322 321 319 317 316 316 316 317 317 318 318 319 321 321 322 322 322 322 322 322 322 322 321 321 321 320 321 322 322 322 322 322 322 322 321 320 319 319 318 317 316 315 312 308 302 297 294 293 293 292 293 292 293 293 293 293 293 296 300 301 301 300 296 292 290 290 290 290
321 321 322 322 322 322 322 323 323 323 323 322 322 321 321 322 323 323 323 323 322 320 319 318 316 316 317 317 318 319 319 320 321 322 321 321 322 322 322 322 321 321 320 321 322 322 322 322 322 322 322 322 320 319 319 319 318 317 315 313 310 305 300 296 293 292 292 292 292 293 293 293 293 293 295 300 302 302 300 297 293 291 290 290 290
321 321 322 322 323 323 323 324 324 324 324 324 324 324 323 322 322 322 323 323 324 323 323 322 320 319 318 318 318 318 318 319 320 321 321 322 322 321 322 322 321 321 321 321 322 322 322 321 322 322 322 322 321 320 319 319 318 317 315 313 311 308 303 298 295 293 292 292 292 293 293 293 293 293 295 300 303 303 301 297 294 291 290 290 290
321 321 322 322 322 323 324 324 324 325 325 326 325 325 325 324 323 323 323 323 323 323 323 323 323 322 322 321 320 320 320 321 321 321 322 322 322 321 322 322 322 322 321 321 321 322 322 322 322 322 322 322 321 321 320 319 318 317 315 313 312 309 305 301 298 295 294 293 292 293 293 293 293 293 295 300 303 302 301 298 294 291 290 290 290
321 321 321 322 322 323 324 324 324 325 325 326 326 326 326 325 325 324 323 323 323 323 323 323 323 322 322 322 322 322 322 321 321 322 322 322 322 322 322 322 322 322 321 321 321 322 322 322 322 322 323 323 322 321 321 320 319 318 316 313 312 310 306 303 301 299 297 295 293 293 293 293 293 293 295 301 303 302 301 298 294 291 290 290 290
321 321 321 322 322 323 323 324 324 324 325 326 326 326 326 326 325 325 324 324 324 324 323 323 323 322 322 322 322 322 322 322 322 322 322 322 322 322 322 322 322 322 322 321 322 322 322 322 323 323 323 322 322 322 321 320 319 318 316 314 312 310 307 304 303 302 300 298 295 293 293 293 294 293 296 302 303 302 301 298 294 292 290 290 289
321 321 321 322 322 323 323 324 324 324 325 326 326 326 327 326 326 326 325 325 325 325 324 323 323 323 323 323 323 323 323 323 322 322 322 322 322 322 322 322 322 322 322 322 322 322 322 322 322 321 320 320 321 321 320 320 319 317 315 314 312 311 308 305 304 304 303 301 297 294 293 293 294 294 297 302 303 302 300 297 294 293 291 290 289
321 321 321 322 322 323 323 324 324 325 325 326 326 327 327 327 327 326 326 325 325 325 324 324 323 324 324 323 323 323 323 322 322 321 321 321 321 321 322 322 321 321 322 322 322 322 322 322 321 320 319 320 320 320 320 320 318 316 315 314 313 311 309 307 306 305 304 303 300 296 294 294 294 294 298 303 303 301 299 297 295 293 291 289 289
321 320 321 321 322 322 323 323 324 325 325 326 326 327 327 327 327 326 326 326 326 325 325 324 324 324 324 324 323 322 322 322 321 320 320 320 320 321 322 322 321 321 322 323 323 323 323 322 321 320 320 320 320 320 319 319 317 316 315 315 314 312 310 309 308 306 305 303 301 298 295 294 294 295 299 303 302 301 299 297 295 292 290 289 289
320 320 320 320 320 321 322 323 324 324 325 326 326 327 327 327 327 327 326 326 326 325 325 325 324 324 323 323 322 322 321 321 321 320 320 320 320 320 321 321 321 322 323 323 323 323 323 323 322 322 321 321 320 319 318 318 317 316 316 316 315 313 312 311 309 307 305 304 302 299 295 294 294 296 301 303 301 301 299 296 294 292 290 290 289
318 318 318 318 319 319 321 322 322 324 325 325 326 327 327 327 327 327 326 326 326 325 325 324 324 324 323 322 322 322 322 321 320 319 319 319 320 320 320 320 321 321 322 323 323 324 324 323 322 321 321 321 320 319 317 317 317 317 317 316 314 313 312 310 308 306 305 303 301 298 296 295 295 298 302 302 301 301 298 295 293 292 291 290 291
316 316 316 316 317 317 318 320 320 322 323 324 325 326 327 327 327 326 326 325 325 325 325 324 324 324 322 321 322 322 322 321 319 319 321 321 322 322 322 322 322 322 322 322 323 324 324 323 322 321 321 321 320 319 318 317 317 317 316 315 313 311 310 309 307 306 304 302 300 297 295 294 296 300 302 302 301 299 296 294 293 292 292 292 292
313 314 314 314 315 315 316 317 318 319 321 323 324 326 326 326 326 326 326 325 325 325 324 324 323 323 322 322 322 322 321 320 319 321 322 322 323 324 324 324 324 324 323 323 323 323 323 323 322 322 322 321 320 319 318 317 317 317 315 314 313 311 310 309 307 305 303 301 299 297 295 295 298 302 302 302 301 298 295 294 293 293 293 293 293
311 312 312 312 313 313 314 315 316 318 320 321 323 324 325 326 326 326 325 325 325 324 324 323 322 322 321 321 321 322 322 321 321 321 322 322 322 324 324 324 323 322 322 321 321 321 321 321 321 321 321 321 319 317 317 316 316 315 314 314 313 312 311 309 307 305 303 300 298 296 295 296 300 302 302 301 300 296 295 294 293 294 294 294 294
310 310 311 311 311 312 313 314 315 317 319 321 322 323 324 325 325 325 325 325 324 323 322 322 322 322 322 322 323 323 323 323 323 323 324 324 323 323 322 323 323 323 323 321 320 320 320 320 321 320 320 319 318 316 316 316 315 314 313 313 313 313 312 310 308 306 303 300 298 295 295 298 301 302 302 301 298 296 295 294 295 295 295 294 295
310 310 310 310 310 311 311 312 314 316 318 320 321 322 323 324 324 324 324 324 323 322 321 322 322 321 321 322 323 323 321 321 323 325 325 324 323 322 321 322 324 325 325 323 322 322 321 320 320 320 319 318 317 316 316 315 315 314 314 314 313 313 310 308 307 306 303 300 297 295 296 299 302 302 301 300 297 295 294 295 296 295 295 295 296
310 310 310 309 309 310 310 311 312 314 316 319 320 321 322 323 324 324 323 323 322 321 321 322 323 321 320 322 324 323 321 322 323 325 325 323 323 323 322 322 324 324 324 323 322 321 319 318 318 319 319 318 316 315 315 315 315 316 315 314 313 312 310 307 306 305 302 299 296 295 297 301 302 301 301 299 296 294 295 296 296 296 296 296 296
310 310 310 309 309 309 309 310 310 311 313 315 317 319 321 322 323 323 322 322 321 321 320 321 321 321 321 321 323 322 322 324 324 324 323 323 322 321 320 321 323 323 321 320 320 319 318 317 318 319 319 317 316 316 316 316 316 316 315 314 313 311 310 308 306 304 300 297 295 295 298 302 302 301 300 298 295 295 295 296 296 296 296 296 295
310 310 310 310 309 309 309 309 309 310 310 311 314 317 320 322 323 323 322 320 320 320 322 320 317 318 321 321 321 322 323 323 322 321 321 321 320 320 320 321 321 320 319 318 317 317 316 317 319 319 318 317 316 317 316 316 316 315 315 314 312 311 310 309 307 304 299 297 295 295 299 302 301 300 300 297 295 295 296 296 296 296 296 295 294
310 309 310 310 310 309 309 308 308 309 308 310 311 314 318 320 321 321 321 320 318 318 320 320 317 318 322 323 321 321 322 322 321 320 320 320 320 320 320 320 319 318 318 318 318 317 317 318 319 319 318 317 316 316 315 315 315 314 314 313 312 311 309 309 307 303 299 296 295 296 300 302 300 299 298 296 295 296 296 296 296 296 295 294 293
311 310 310 310 310 310 310 309 309 309 308 309 309 311 315 317 318 319 318 319 319 318 319 322 321 318 319 322 322 320 320 322 322 320 319 320 320 320 320 319 319 319 318 318 318 318 318 318 319 319 318 317 317 316 314 314 314 313 312 312 311 310 309 309 306 300 297 295 295 297 300 301 300 299 297 296 295 296 296 296 296 295 294 294 293
310 310 310 309 309 310 310 310 310 309 309 309 309 309 311 313 315 316 317 318 319 320 320 321 319 315 316 320 322 321 320 320 320 318 318 320 320 320 320 319 319 319 319 319 318 318 318 318 318 319 318 317 316 315 314 313 313 312 311 310 310 309 308 308 305 299 295 295 296 298 301 301 300 298 296 295 296 296 296 296 296 295 294 293 292
310 310 310 310 309 309 310 310 310 310 310 310 310 309 309 309 311 313 315 317 318 318 318 317 316 317 318 319 318 317 318 318 318 318 318 320 320 320 321 321 320 320 320 319 319 318 318 318 318 317 317 316 315 314 313 312 311 310 310 308 307 306 306 306 303 298 295 295 296 298 300 300 299 297 295 295 295 296 296 296 296 294 294 293 292
310 310 310 310 310 310 309 310 309 310 310 310 310 310 309 309 309 310 312 314 314 314 313 314 316 320 323 321 316 315 316 318 318 319 319 319 319 319 320 321 321 320 320 319 318 318 317 317 317 317 316 315 314 313 312 311 310 309 308 307 306 305 304 303 301 298 295 294 296 299 300 300 299 297 295 295 296 296 296 296 295 294 293 292 292
310 310 310 310 310 310 310 310 310 309 310 310 309 310 310 309 309 309 309 310 312 313 313 313 314 317 320 321 318 315 316 317 318 320 320 319 318 317 319 321 321 320 319 318 318 317 316 316 316 316 315 314 312 311 310 309 309 308 307 306 306 306 303 300 298 297 294 294 297 300 300 299 298 296 294 295 295 296 296 296 295 294 293 292 291
311 310 310 310 310 310 310 310 311 310 310 310 309 309 310 309 309 309 309 309 310 313 315 317 317 317 317 318 317 316 317 317 318 319 320 319 318 317 318 320 320 319 318 318 317 316 316 316 315 315 314 312 311 310 309 308 307 307 307 307 306 304 301 298 296 295 294 295 298 300 299 299 297 295 294 294 295 295 296 296 295 294 293 292 292
312 311 310 310 310 310 311 311 311 311 311 311 310 309 309 309 309 309 309 309 309 311 314 316 317 317 314 313 314 316 318 317 317 318 320 319 318 317 318 318 318 317 318 318 317 316 316 315 314 313 313 312 311 310 309 307 306 306 307 306 304 300 297 295 294 293 293 295 297 299 298 298 296 294 293 294 294 294 295 295 295 294 293 292 292
Wind_Speed
11 12 13 13 14 14 14 14 15 15 15 14 13 13 12 12 12 11 10 10 10 10 10 9 6 6 6 5 6 6 6 4 3 4 4 2 2 4 7 9 11 11 10 8 5 6 7 7 6 6 5 4 4 3 2 1 3 4 5 6 7 7 8 9 10 11 12 12 12 13 13 13 13 14 15 16 16 16 17 17 16 15 15 15 15
12 13 14 15 16 16 15 15 15 15 15 14 14 14 13 13 13 12 11 11 10 11 10 7 6 6 6 7 7 6 6 6 5 4 3 3 2 3 6 7 9 11 12 11 7 7 9 7 6 8 6 4 5 4 3 2 3 4 5 6 7 7 8 9 10 10 11 12 12 13 13 13 13 14 15 16 16 16 16 17 16 15 14 14 15
13 14 15 15 16 17 17 16 15 15 15 16 15 15 15 15 14 13 12 12 11 12 11 9 8 6 7 10 9 6 6 7 8 6 3 3 2 2 4 6 8 9 11 11 9 10 10 9 10 10 6 4 6 5 3 2 3 4 4 5 6 7 8 9 9 11 12 12 12 12 13 13 13 14 15 15 16 16 16 16 17 15 13 13 15
15 16 16 16 17 17 17 17 16 16 17 17 17 17 16 16 15 14 13 13 12 13 12 11 9 5 6 10 9 7 6 7 9 9 6 4 4 3 3 5 7 8 10 11 12 12 11 11 11 10 7 6 6 5 4 3 2 4 5 6 7 7 8 9 10 11 12 12 12 12 13 13 13 14 14 15 15 16 16 16 16 16 14 13 14
17 17 17 17 18 18 17 17 17 18 18 19 19 18 18 17 16 15 14 13 13 13 13 12 10 7 8 9 7 7 6 6 7 9 10 8 6 5 5 5 6 6 8 11 14 13 13 13 11 10 8 5 4 4 4 3 3 4 6 7 7 7 8 9 10 11 11 12 12 12 13 13 13 13 14 14 15 16 16 16 17 16 14 13 13
19 18 18 18 19 18 17 18 18 18 20 20 20 20 19 18 18 17 15 14 13 13 12 11 9 8 8 8 7 7 7 7 7 8 11 10 8 7 7 7 7 6 7 11 14 15 16 16 12 10 8 6 5 5 5 5 6 5 5 6 7 7 8 9 10 11 11 12 12 13 13 13 13 13 13 14 14 15 16 16 16 16 14 13 13
20 20 20 20 19 19 18 18 18 19 20 21 21 21 20 19 19 18 17 16 14 14 13 11 9 9 9 8 8 8 7 8 8 9 10 11 11 9 7 8 8 9 8 10 12 16 18 18 15 12 11 9 10 9 8 9 9 7 6 5 6 8 9 9 10 10 11 12 12 13 13 12 12 12 13 13 14 15 15 16 16 15 14 13 13
21 22 22 21 20 20 20 19 19 19 21 22 22 23 21 20 20 19 18 17 15 14 13 12 10 9 9 9 9 9 9 8 9 10 11 12 13 10 8 8 9 8 9 9 11 16 18 19 18 17 16 14 13 13 13 12 11 10 7 5 6 8 9 9 10 10 11 12 13 13 13 12 12 12 12 13 14 14 15 15 16 15 15 14 13
23 23 23 22 21 21 21 21 20 20 22 22 23 23 22 21 21 21 20 18 16 15 13 12 10 10 10 10 10 10 10 9 9 11 13 13 14 13 10 9 9 9 8 9 11 15 16 17 18 18 17 17 16 15 15 15 13 11 9 8 7 7 8 9 10 10 11 12 13 13 13 12 12 13 13 13 14 14 15 15 16 16 15 15 14
24 25 24 23 23 23 23 22 22 22 23 23 23 24 23 23 23 22 21 19 18 16 14 12 11 13 12 11 12 12 11 10 10 12 15 16 14 12 12 11 12 13 11 10 11 13 15 15 15 17 18 18 18 17 16 16 13 12 11 11 9 8 8 9 10 10 11 12 13 13 13 12 12 13 13 14 14 15 15 15 16 16 15 15 14
25 26 25 24 24 24 24 24 24 24 24 24 24 25 25 25 24 22 22 20 19 17 15 13 13 14 14 13 14 14 13 12 12 14 16 17 15 13 13 13 13 15 15 13 13 13 14 14 14 15 18 19 19 18 17 17 14 13 13 14 13 10 8 9 10 10 11 12 13 13 13 12 13 13 14 14 14 15 15 15 16 16 17 17 16
27 27 26 26 26 26 25 25 24 25 25 25 24 25 26 25 24 23 22 21 20 19 17 16 14 14 15 16 16 16 15 15 15 16 17 18 16 15 15 15 15 15 16 16 16 15 14 14 14 15 17 19 19 18 18 18 16 14 14 15 15 13 10 9 10 11 11 12 13 13 13 13 13 13 14 14 15 15 15 16 16 17 18 18 18
29 28 28 28 27 27 27 26 25 26 26 25 25 25 26 25 24 24 23 23 22 21 20 19 17 15 14 15 16 16 17 17 17 17 18 18 17 17 17 16 16 16 16 17 18 17 16 15 16 17 17 18 19 20 19 19 18 16 16 17 17 16 13 11 11 12 12 12 13 13 13 13 13 14 14 15 15 16 16 16 17 17 18 19 19
32 30 29 29 29 29 29 27 26 26 27 26 26 26 26 26 26 26 25 25 24 23 22 21 21 18 14 13 13 15 17 18 18 19 19 18 17 18 19 17 16 17 17 18 19 19 18 18 19 19 18 18 19 20 20 20 20 19 19 18 18 17 16 13 12 12 13 13 13 14 13 13 13 14 14 15 16 17 17 17 17 18 19 20 21
35 33 32 32 31 31 30 29 28 28 28 27 27 27 27 27 28 28 27 27 26 25 24 23 21 17 15 15 14 13 15 16 17 17 15 15 16 16 18 18 17 18 18 19 20 20 20 20 21 21 20 19 19 20 22 22 22 21 20 20 19 19 18 16 14 14 14 14 14 14 13 13 13 13 14 15 16 18 18 18 18 19 20 21 22
37 36 36 36 34 33 32 31 30 30 29 28 29 28 28 28 29 29 29 29 29 27 26 25 23 19 15 15 14 12 13 12 11 13 13 14 16 15 15 16 16 17 18 18 19 20 21 22 22 22 22 22 20 20 22 23 24 23 23 22 21 21 20 18 16 15 15 15 14 14 13 14 13 14 14 15 17 18 19 19 19 20 20 21 22
38 39 39 38 37 37 35 34 33 32 31 31 30 30 29 29 29 29 30 30 29 27 28 27 25 24 21 15 11 11 12 11 9 12 15 17 16 15 15 15 15 16 16 16 17 18 20 21 22 23 23 22 21 21 22 24 26 26 25 25 24 22 21 20 19 17 16 16 15 14 14 13 14 14 15 16 17 18 19 20 20 20 20 22 22
38 39 39 38 39 38 38 37 35 34 34 33 33 32 31 31 30 30 30 30 30 29 31 30 26 28 28 24 19 15 14 12 10 11 15 18 19 19 19 18 17 17 17 17 17 18 19 19 20 22 22 21 21 22 23 24 26 27 27 27 26 24 23 22 20 18 18 17 16 15 14 14 14 15 16 16 17 19 20 20 20 20 21 22 22
36 37 38 38 38 38 39 38 37 37 36 35 36 35 33 32 31 31 31 30 31 32 33 32 30 30 31 29 27 25 22 19 17 15 16 19 21 22 21 20 20 21 21 21 20 19 19 19 20 21 21 21 21 21 23 25 26 27 28 28 27 26 25 24 22 20 20 18 17 16 15 15 15 15 16 17 18 20 21 21 20 21 21 22 23
35 35 37 37 38 38 38 38 39 39 38 38 38 37 35 34 33 32 32 32 33 33 33 33 34 33 31 31 31 31 30 30 28 24 22 22 22 25 26 25 25 26 26 25 23 22 22 21 19 20 20 21 22 22 23 25 25 27 29 28 27 27 27 26 24 22 21 19 18 17 16 16 15 16 17 17 19 20 21 21 21 21 21 22 23
35 35 36 36 37 38 37 38 38 39 39 40 40 39 37 36 35 34 33 34 34 34 34 35 37 36 34 33 32 32 33 33 32 31 30 28 27 29 30 29 29 29 27 26 26 25 26 24 21 20 20 21 22 24 25 25 26 28 28 27 27 28 28 27 26 24 22 20 19 18 17 17 16 16 17 18 20 20 21 22 21 22 22 22 23
36 36 37 37 37 38 37 37 38 38 38 39 40 40 39 38 37 36 35 35 36 36 36 35 37 38 37 35 33 33 35 34 32 33 34 33 32 32 32 32 32 30 27 27 26 26 28 28 26 24 23 22 22 24 26 26 27 27 27 27 28 29 29 28 27 25 23 21 20 19 18 17 17 17 18 19 20 21 21 22 22 22 22 23 23
36 37 37 37 38 38 38 37 37 38 38 38 39 40 40 40 39 38 37 37 38 38 37 37 38 40 40 38 35 32 34 37 36 35 37 36 33 33 34 34 35 33 30 29 28 29 30 30 29 28 27 27 25 25 26 27 28 27 26 27 28 29 30 29 28 26 24 23 21 20 19 18 18 18 18 19 20 21 21 22 22 22 22 23 24
37 37 37 36 37 38 38 38 37 38 37 37 38 38 39 40 40 40 39 39 39 40 40 39 40 41 41 41 39 35 32 32 31 30 32 32 30 32 30 29 31 33 32 31 31 32 32 32 33 32 31 31 30 28 28 28 28 27 27 28 29 30 30 30 29 27 25 24 22 21 20 19 19 19 18 20 20 21 22 22 22 22 23 23 24
37 37 36 35 35 35 35 36 36 37 37 37 37 37 38 39 39 40 40 40 40 41 41 41 41 42 42 41 41 41 36 30 26 24 25 24 25 29 27 27 31 32 32 33 32 33 34 33 34 34 33 33 32 30 30 30 29 29 29 29 30 30 30 30 30 28 26 25 23 22 21 20 20 19 19 20 21 21 22 22 22 22 23 24 24
36 35 34 34 34 32 33 33 34 34 34 34 35 35 36 37 37 38 39 39 40 42 42 42 43 43 44 43 43 44 42 36 30 27 26 25 26 27 26 29 33 34 34 34 34 36 35 32 32 34 33 33 33 31 30 31 31 29 30 31 31 31 30 30 30 29 27 26 25 24 22 21 21 20 20 21 21 22 22 22 22 23 23 24 25
35 34 33 33 33 32 33 33 32 31 31 31 31 32 33 34 35 36 37 38 39 40 41 42 43 43 44 44 44 44 44 41 34 29 27 27 28 28 26 27 30 32 35 35 37 38 36 33 34 36 34 33 34 33 30 31 32 31 31 32 33 32 31 30 30 29 28 27 26 24 23 22 21 21 21 22 22 22 22 22 22 23 24 24 25
34 34 33 33 33 33 34 33 32 31 30 30 29 30 31 32 33 34 35 36 37 38 38 39 40 41 41 42 42 43 42 40 35 31 28 27 28 30 29 28 29 31 34 34 38 41 37 34 36 36 35 33 34 34 32 32 33 32 32 34 34 34 32 30 29 29 29 29 27 25 23 22 22 22 22 22 22 22 21 21 22 23 24 25 26
34 34 33 33 33 33 34 34 32 31 31 30 30 30 30 31 32 32 33 34 35 35 36 37 37 38 39 39 39 40 39 38 36 34 32 29 30 30 30 31 31 32 33 32 37 41 37 35 35 35 35 33 33 34 33 33 33 32 33 34 36 35 33 31 29 30 30 30 28 26 24 23 23 23 23 23 22 21 21 21 22 22 24 25 26
34 34 33 33 34 34 34 34 33 32 32 31 31 31 31 31 32 32 33 33 34 35 35 36 36 36 37 37 37 38 38 37 36 35 34 32 31 30 31 33 33 34 36 36 38 40 37 35 36 35 34 32 31 33 33 32 32 32 32 34 36 35 33 31 30 31 31 30 30 28 26 24 24 23 23 23 22 21 21 21 22 23 24 26 27
34 33 33 34 35 35 34 34 33 33 33 32 32 32 32 32 32 33 33 33 34 36 36 36 37 37 37 37 37 37 37 36 35 34 33 33 32 32 33 34 33 34 37 38 41 41 38 37 37 34 31 29 30 32 33 31 30 31 32 33 35 34 33 32 32 32 32 31 31 29 26 25 24 24 24 23 22 21 21 21 22 23 25 26 27
33 34 34 35 35 35 35 34 34 34 34 33 33 33 33 33 34 34 34 34 35 36 36 37 37 37 37 37 37 37 36 35 34 34 34 33 33 33 32 33 33 34 35 39 43 43 41 40 39 35 30 28 29 30 31 30 29 29 30 31 33 33 32 33 33 33 33 32 31 28 26 25 24 24 24 23 22 21 21 21 22 24 25 26 27
34 34 35 35 35 34 34 34 34 34 34 33 33 34 34 34 34 34 34 34 36 37 37 38 38 38 38 38 38 37 35 34 34 34 34 33 32 32 32 33 34 34 35 39 44 45 42 41 39 36 32 29 29 31 31 29 28 28 28 29 31 31 32 33 33 33 32 32 30 28 26 25 24 24 23 23 22 21 21 22 23 24 25 27 27
33 34 34 34 34 34 34 34 34 35 35 34 33 34 35 35 34 34 35 35 37 38 38 39 40 40 39 38 38 36 34 33 33 33 33 31 30 31 32 34 35 35 35 38 42 43 42 40 39 39 36 31 30 31 31 28 26 27 28 29 30 30 31 31 32 32 32 31 29 27 26 25 24 23 23 22 22 21 21 21 22 24 25 26 27
32 32 32 32 33 34 34 35 35 35 35 35 35 35 36 35 35 35 36 36 38 39 39 40 40 40 38 38 37 34 30 30 30 30 29 28 28 30 31 32 34 34 34 36 38 40 40 41 40 39 36 32 31 31 30 28 26 28 30 30 30 30 30 31 32 32 31 29 28 26 26 24 23 23 23 22 22 21 21 21 22 24 25 26 27
29 30 30 31 33 34 35 35 36 36 36 36 36 35 36 36 36 36 36 37 38 39 39 39 39 38 36 35 34 31 29 29 29 28 28 29 29 31 31 30 32 34 33 34 36 39 40 40 39 35 33 33 33 30 28 28 28 29 31 32 31 30 30 30 31 31 30 29 28 27 26 24 23 23 22 22 21 20 20 21 22 24 24 26 27
29 30 30 31 32 34 34 35 36 36 37 37 37 36 36 37 36 36 36 37 38 38 38 39 38 36 35 34 32 30 28 29 30 29 29 30 31 33 35 35 36 36 34 34 36 37 37 36 35 34 33 33 33 30 27 28 29 31 32 32 32 31 30 30 32 32 30 29 28 28 26 23 22 22 22 22 21 19 20 21 22 23 24 25 27
31 32 32 32 33 34 34 34 35 35 36 37 37 36 36 36 36 36 37 38 38 38 38 38 36 34 33 33 31 30 30 30 31 30 30 30 31 34 36 36 34 31 30 31 32 31 30 30 32 34 34 31 31 30 29 29 30 30 30 31 31 31 30 31 32 32 30 29 29 28 25 23 22 22 22 22 20 19 20 21 21 22 24 25 27
32 33 34 35 35 34 34 34 34 35 36 36 36 36 36 36 36 37 38 38 38 38 38 37 35 34 34 32 32 32 32 33 33 32 32 32 32 32 31 29 28 28 28 28 28 26 26 27 31 33 32 28 27 29 29 30 30 29 28 29 31 32 31 31 31 30 29 29 29 27 25 23 23 22 22 21 20 19 20 20 21 22 24 26 28
31 33 35 36 36 36 35 35 35 35 36 36 36 37 37 37 37 38 39 39 38 38 38 35 35 36 35 34 34 33 33 33 33 32 32 32 32 32 31 29 28 29 30 31 30 28 27 27 29 30 28 25 25 26 27 29 29 27 27 29 32 32 31 29 29 29 29 28 29 27 25 23 23 22 22 21 20 19 20 20 20 22 24 27 28
31 32 34 35 37 38 37 36 36 37 37 38 38 38 38 38 38 39 39 38 38 38 37 36 36 37 35 35 35 34 33 33 33 33 34 32 32 34 32 29 28 29 30 31 30 28 27 26 28 28 26 24 24 25 25 26 26 26 28 30 30 30 29 29 29 29 29 28 28 28 25 23 22 22 22 21 20 19 20 19 20 22 25 27 28
30 32 33 35 36 37 38 38 38 38 39 40 39 38 38 38 38 38 38 38 38 38 37 37 38 38 36 35 36 36 35 35 34 35 35 33 34 35 33 31 31 30 28 28 28 28 27 27 29 30 27 25 25 25 25 25 25 28 32 30 26 26 27 29 30 30 29 27 28 28 26 22 22 22 22 21 20 19 19 19 20 23 26 28 28
30 32 33 34 35 36 37 39 39 40 40 40 40 39 39 38 38 38 38 38 37 37 38 39 38 37 36 36 36 36 36 36 35 34 33 33 34 34 33 32 32 30 28 28 28 28 28 28 29 29 28 26 24 24 25 26 27 30 32 29 26 27 28 28 29 30 29 28 29 29 25 21 21 23 23 21 20 19 19 19 21 24 26 27 27
30 32 33 32 32 34 36 38 39 40 40 39 39 39 39 38 37 37 37 37 37 37 38 38 37 36 37 37 36 37 37 36 36 35 34 33 32 31 30 30 29 29 29 28 27 27 27 28 28 30 29 26 23 23 24 24 24 25 27 28 28 28 28 28 28 28 27 27 28 28 24 21 21 23 23 21 20 19 19 20 22 24 26 26 26
30 32 32 31 30 31 32 35 37 38 38 38 37 37 38 37 36 36 36 36 37 37 36 37 38 38 39 38 37 38 39 37 36 36 35 32 30 30 30 30 30 30 31 30 29 28 28 27 28 30 29 25 24 23 20 19 20 21 24 26 25 26 27 26 26 26 25 25 27 26 23 21 21 23 23 21 20 20 20 20 22 24 26 26 26
30 31 31 30 28 27 28 30 32 33 34 33 34 34 35 35 35 35 35 36 37 38 39 40 39 37 36 37 38 39 40 38 37 37 35 33 32 32 32 32 34 34 33 33 32 31 31 30 30 30 27 24 23 20 16 16 18 20 21 22 22 22 23 23 24 27 26 27 27 25 23 22 22 22 22 20 21 20 20 21 23 24 25 25 25
30 30 31 30 28 26 25 26 28 29 29 29 31 32 33 34 34 35 35 37 39 40 41 40 37 34 35 37 37 37 37 36 36 35 35 34 33 33 34 35 36 35 34 34 33 33 33 31 29 27 25 22 20 18 17 18 19 19 20 20 20 20 20 22 26 28 29 30 30 27 25 24 22 22 21 21 21 21 21 22 23 24 25 25 25
31 31 31 30 29 27 26 26 26 26 25 26 28 30 30 32 33 35 36 37 39 40 39 39 37 36 37 38 37 35 34 34 33 32 33 33 33 34 35 36 36 35 34 34 32 32 31 29 26 25 24 22 20 19 20 20 20 21 21 22 22 22 22 24 27 29 31 32 31 28 27 25 22 22 22 21 21 22 22 23 23 24 25 25 24
32 31 32 32 31 30 28 27 27 26 24 25 26 27 28 30 32 34 35 35 37 37 37 36 37 37 38 39 39 37 35 35 34 32 32 34 33 33 34 36 36 35 34 33 31 30 28 25 23 24 24 23 21 20 21 22 22 23 24 25 25 25 25 26 28 30 32 32 30 27 27 25 23 23 22 22 22 23 23 23 23 24 24 24 23
34 33 33 34 34 33 31 29 29 28 26 25 26 28 28 29 30 32 32 33 35 37 37 37 38 39 40 41 41 39 38 37 35 33 33 34 32 31 32 33 34 33 33 33 31 28 26 25 24 25 24 22 21 21 21 22 22 24 26 26 26 25 26 28 28 29 30 31 29 26 26 26 23 22 22 22 23 23 23 23 23 23 23 23 23
37 36 35 36 36 35 34 33 32 31 29 27 28 29 29 29 29 30 31 33 36 37 39 41 41 42 42 41 40 40 39 37 36 35 35 34 33 31 31 32 33 33 33 32 31 29 27 26 26 25 23 21 20 21 21 21 22 24 25 25 25 25 26 27 27 29 31 31 28 26 27 26 23 22 22 22 22 22 21 21 21 21 22 23 24
Wind_Direction
238 240 241 241 241 240 239 237 237 238 238 239 240 243 247 253 258 263 268 274 279 285 292 300 299 295 295 293 303 307 313 317 300 330 347 303 275 235 225 217 213 209 205 208 199 200 231 250 260 272 264 226 222 235 254 328 360 5 4 4 6 8 8 7 4 1 1 2 2 0 360 0 1 1 4 9 11 9 8 8 7 11 18 15 12
236 239 241 242 243 243 242 240 239 241 243 243 243 244 246 250 255 259 263 269 271 279 287 290 288 287 284 288 295 298 302 302 299 321 328 296 293 248 242 235 230 221 216 216 197 199 222 228 250 279 283 237 221 231 241 295 346 357 360 2 0 0 2 2 360 357 357 359 359 358 356 357 359 0 3 8 10 8 6 7 6 7 13 12 10
236 238 241 242 244 245 245 244 243 243 244 246 246 246 247 249 253 256 259 264 268 277 286 287 288 283 280 292 293 282 284 292 301 313 305 282 296 275 257 250 244 229 220 216 198 200 217 230 252 269 280 260 232 228 240 284 330 346 355 360 357 355 355 357 355 354 356 355 356 354 353 355 357 359 2 6 8 7 5 4 3 5 9 10 8
237 239 241 243 245 247 248 249 246 245 245 246 247 247 249 250 253 255 259 263 267 276 284 287 287 272 276 289 284 274 275 279 290 298 292 280 289 301 279 259 250 233 220 210 197 204 222 236 251 265 280 267 237 230 244 268 308 334 348 352 354 353 350 350 351 352 353 352 351 351 351 352 355 357 1 4 6 6 4 2 2 3 5 7 5
237 239 241 243 245 247 249 251 249 248 246 246 247 248 249 251 253 255 258 262 267 275 281 284 282 270 274 277 270 272 273 266 269 278 285 286 287 295 292 286 267 238 218 206 202 209 222 230 247 270 273 254 233 232 238 259 297 329 343 346 348 346 343 346 349 349 349 347 346 347 348 350 352 355 359 1 3 4 3 360 360 0 2 3 2
237 239 241 243 245 247 248 250 251 250 248 247 248 248 250 251 252 254 257 260 264 271 274 277 276 270 274 273 266 267 268 270 263 266 279 284 285 284 284 291 289 263 223 205 208 216 225 232 247 260 250 244 252 247 246 268 294 316 330 338 338 335 335 342 347 346 344 342 341 344 345 346 348 352 355 358 1 2 0 358 356 356 358 360 0
239 240 242 243 246 248 248 249 250 250 249 248 248 248 249 250 252 252 255 257 261 267 269 270 269 266 269 267 265 265 266 270 263 267 274 276 282 281 274 280 289 278 242 211 213 224 233 241 250 253 253 262 264 262 263 271 287 298 309 329 327 325 330 338 345 341 338 338 338 340 342 342 344 348 351 355 358 358 357 355 352 351 353 356 358
240 242 244 244 245 248 249 249 249 249 249 248 247 248 248 248 250 251 252 255 258 263 263 264 265 265 265 260 263 267 267 267 264 270 270 268 275 274 271 280 293 285 252 227 220 227 238 247 253 257 261 266 267 270 266 268 280 285 292 311 315 318 326 333 337 335 334 335 334 334 336 338 340 344 348 351 352 353 353 351 349 349 348 350 354
242 243 244 245 245 246 248 248 247 248 248 247 246 247 247 246 248 249 250 252 256 257 256 259 260 259 259 260 264 268 268 264 260 268 269 268 272 268 264 274 287 288 267 248 239 235 239 247 253 257 260 262 265 268 261 263 272 276 285 297 301 311 320 326 328 330 331 331 329 329 331 334 337 340 343 345 346 347 347 346 345 347 345 346 351
245 245 245 245 245 244 245 246 244 245 246 246 247 247 246 245 246 248 250 251 252 253 252 253 256 257 260 263 265 268 270 266 262 267 270 272 276 268 260 263 270 277 277 270 262 252 246 248 252 255 257 258 260 262 259 259 262 269 283 289 293 304 312 316 320 324 326 326 324 323 326 331 334 337 338 340 342 341 341 341 341 342 343 345 349
246 247 247 246 246 246 245 244 243 244 246 246 247 248 248 246 246 248 249 250 251 250 250 250 252 258 263 265 268 270 272 270 267 268 268 270 275 271 263 259 257 264 272 275 275 269 257 254 255 256 256 255 256 258 256 254 255 266 278 283 288 296 302 307 313 317 320 320 318 318 323 328 332 333 334 335 337 335 335 336 338 339 340 340 343
247 247 248 247 247 248 247 246 244 243 245 247 248 250 250 249 248 248 249 250 250 248 247 249 252 258 263 265 268 272 272 271 271 269 266 266 268 269 267 260 253 255 264 269 273 274 269 263 260 258 258 256 254 255 253 252 255 262 268 275 283 289 294 300 305 310 312 314 314 315 320 326 329 330 331 331 331 330 330 331 334 336 336 335 338
248 247 248 248 247 249 249 248 246 245 246 248 249 250 251 249 247 246 247 247 248 246 244 246 249 254 260 266 272 274 272 270 269 267 268 269 266 265 268 266 258 254 258 265 269 271 273 272 266 259 259 260 255 252 250 250 253 257 261 267 276 283 289 293 298 302 305 308 310 313 318 323 325 326 327 327 326 325 325 327 330 332 332 332 333
249 248 249 249 249 250 251 250 249 248 248 248 249 249 249 248 245 245 244 244 245 244 243 243 245 251 257 263 274 277 274 274 272 268 270 272 268 263 266 269 264 259 258 262 266 269 271 272 270 263 260 263 259 253 249 248 250 253 257 263 270 278 283 287 292 295 298 302 305 310 314 318 321 322 322 323 322 322 322 323 325 327 328 330 331
250 250 250 251 251 251 252 252 252 251 251 249 248 248 248 247 245 245 245 244 243 242 244 243 243 248 253 253 259 270 275 278 277 273 271 270 269 265 265 268 267 264 261 260 262 264 267 269 270 268 265 265 264 256 250 248 250 252 255 261 266 271 277 282 286 288 292 296 300 305 310 313 316 317 317 319 320 319 320 320 322 324 326 328 330
251 251 251 251 252 252 252 253 253 252 252 251 249 249 249 248 247 246 244 244 244 244 245 245 241 239 241 248 252 256 263 267 268 271 274 273 272 268 265 267 268 267 264 263 264 263 263 264 267 269 268 265 264 260 254 250 250 252 254 258 262 266 272 278 280 283 287 290 295 300 304 308 311 312 314 316 318 318 317 317 319 322 325 326 328
251 251 252 252 252 252 252 252 251 251 251 251 250 250 249 248 248 247 246 245 247 248 248 246 243 240 240 240 239 243 254 264 261 265 277 279 272 268 267 268 271 271 269 271 274 273 269 266 266 268 269 266 262 260 257 254 251 251 253 257 259 262 267 272 275 278 281 285 290 294 298 303 306 309 311 314 316 316 314 314 316 320 322 323 324
252 253 253 253 252 252 252 251 251 251 251 251 251 250 249 248 248 248 248 246 246 247 249 249 246 244 245 244 242 245 256 263 257 263 281 283 276 272 272 272 273 274 272 275 280 283 281 274 270 268 269 270 265 259 257 256 253 252 254 256 257 260 263 266 269 273 276 280 285 289 293 297 301 306 309 312 314 313 312 312 314 318 319 320 321
254 254 254 254 254 253 252 251 250 250 251 250 251 251 251 250 249 248 249 248 245 244 247 250 250 247 247 249 250 252 256 255 251 261 275 278 278 276 273 271 273 273 273 275 278 284 287 282 275 271 270 270 268 262 257 256 256 256 256 255 256 257 259 261 264 267 271 275 279 284 288 292 297 302 307 311 312 311 310 310 313 315 317 318 320
254 253 253 254 254 253 252 252 251 250 250 250 251 252 251 251 250 248 248 247 245 245 246 248 252 253 253 253 253 255 259 260 259 261 262 265 272 272 268 268 270 271 271 271 271 277 283 283 277 274 271 268 267 264 260 257 257 257 256 256 256 256 256 258 261 263 267 270 273 278 283 287 293 300 304 308 310 310 308 309 311 312 314 317 319
255 253 253 252 252 253 252 252 252 251 250 251 251 252 252 252 250 249 248 247 247 247 247 247 250 255 257 256 257 258 259 261 261 258 256 258 262 266 268 267 266 269 271 270 269 272 275 276 274 270 269 267 265 264 262 260 259 257 257 257 256 255 254 255 258 260 262 265 268 273 278 283 289 296 302 306 309 308 307 307 308 310 313 316 318
256 255 253 252 251 252 251 251 252 252 252 251 252 252 253 252 252 251 249 249 249 249 249 249 249 253 256 256 258 260 259 258 257 256 258 257 257 261 265 264 266 272 274 271 269 271 271 270 268 266 264 264 264 264 263 262 262 261 261 259 255 253 253 253 255 257 259 261 264 268 273 279 286 293 300 306 307 306 305 305 306 308 311 314 316
259 258 257 254 253 253 253 252 252 253 253 252 252 252 253 253 253 252 251 249 249 250 251 252 250 251 254 255 255 258 261 261 260 261 262 260 256 259 262 264 270 273 272 271 268 267 267 267 266 265 264 263 262 263 264 263 263 263 262 259 255 252 251 252 253 255 257 258 260 265 270 276 283 291 299 305 306 305 303 303 304 306 309 312 314
258 259 259 258 257 256 255 254 253 253 253 253 253 253 253 253 252 252 252 251 251 251 252 252 252 252 253 255 254 255 258 261 261 261 262 260 258 260 262 264 268 270 271 272 269 266 266 266 265 264 263 262 261 260 261 262 263 262 260 258 256 253 251 250 251 253 254 255 258 262 268 274 280 288 298 304 305 304 303 301 302 305 307 310 312
256 258 259 262 263 262 261 260 258 257 256 256 256 256 255 254 254 253 253 253 253 253 253 254 255 255 255 257 256 255 256 257 255 254 256 256 256 259 259 257 260 267 270 271 270 268 267 265 263 261 260 260 260 259 257 259 261 261 259 258 256 254 251 249 250 251 252 253 257 261 267 273 278 287 297 304 306 305 304 302 301 302 305 308 311
256 258 260 263 265 266 265 265 264 262 261 260 259 259 258 257 256 255 255 254 254 254 255 255 255 256 257 257 256 256 258 258 255 254 254 252 252 255 257 257 260 264 265 267 268 266 265 265 263 263 261 259 259 258 257 257 259 260 259 257 257 254 252 250 249 250 251 252 255 261 267 272 278 286 295 303 306 306 304 302 300 301 304 307 309
258 260 261 263 264 264 266 266 265 265 264 262 261 259 258 257 255 255 254 254 254 254 254 254 255 255 256 257 257 258 259 258 255 253 252 250 251 252 255 258 261 263 262 264 265 264 265 267 266 264 263 262 260 259 258 257 257 259 259 256 256 255 252 250 249 249 251 252 254 260 266 272 277 284 293 301 305 305 304 301 300 301 303 306 307
259 260 260 261 262 263 265 265 265 265 265 263 261 258 257 255 253 252 252 252 253 253 253 254 254 254 255 256 256 257 257 257 253 252 251 248 249 251 251 254 259 262 261 260 262 263 265 267 268 266 265 265 264 262 260 257 254 256 257 255 255 255 252 249 248 250 252 253 254 259 265 271 277 283 291 299 303 303 303 302 301 302 303 304 306
259 260 261 262 262 263 263 264 264 263 263 262 260 259 257 256 253 251 251 252 253 253 252 253 253 253 253 253 254 255 255 255 254 253 252 249 249 251 251 253 258 260 260 258 261 265 267 269 271 272 272 271 269 265 262 258 254 253 254 254 254 254 252 249 250 252 254 254 255 259 265 271 275 280 289 297 300 302 302 303 303 302 303 304 306
261 262 263 263 263 263 263 263 264 263 262 261 260 258 257 256 253 251 250 251 253 253 251 251 251 252 252 251 252 254 254 255 255 254 254 252 252 252 252 254 256 256 257 259 263 267 269 272 273 274 275 273 271 268 264 259 254 252 253 253 254 254 252 251 251 253 255 256 257 259 264 269 273 278 287 294 298 301 303 304 304 303 304 305 306
262 262 263 263 263 263 263 263 264 263 262 261 260 258 257 256 254 252 250 250 251 252 250 249 249 249 250 251 251 252 254 256 255 254 254 253 252 251 250 252 254 254 256 258 261 265 269 272 273 275 275 273 273 270 264 259 253 250 252 253 253 254 253 252 253 254 256 257 257 259 263 267 270 275 284 292 297 301 303 303 303 303 305 306 307
261 261 262 262 263 263 264 263 263 263 262 261 260 258 257 256 254 252 251 250 250 251 250 250 249 249 249 251 251 252 254 256 255 254 253 252 252 251 249 250 251 252 256 258 258 262 267 270 272 275 275 275 277 272 264 260 252 248 251 252 252 253 252 252 254 255 257 258 258 260 262 264 267 273 283 292 296 300 301 301 302 304 306 307 308
261 262 262 263 264 264 264 263 262 261 261 260 259 258 257 255 254 253 251 250 250 250 249 249 249 249 249 250 251 252 253 253 254 254 253 251 250 249 248 248 248 249 253 258 259 261 265 268 270 273 273 275 280 277 268 260 251 247 250 252 252 252 252 254 256 256 257 258 259 261 261 261 264 272 284 291 294 297 299 300 303 305 306 308 309
265 265 265 265 265 264 263 262 260 260 259 258 257 257 256 254 252 252 250 249 249 249 249 248 249 250 251 251 251 252 253 253 253 253 252 251 248 246 246 245 246 248 252 258 261 262 265 268 270 269 268 271 279 280 272 260 252 251 254 254 252 251 254 256 257 257 257 259 260 260 259 258 263 273 283 289 291 294 297 299 303 305 306 308 310
268 268 267 266 265 264 263 261 259 258 257 256 254 254 254 252 250 249 248 248 249 249 249 249 250 250 251 252 252 251 251 252 254 251 248 247 246 247 248 247 247 249 253 258 262 264 267 267 267 268 269 273 279 281 273 261 257 258 257 254 252 251 254 256 256 257 258 259 259 258 256 255 261 272 281 285 288 292 294 298 302 304 307 309 312
268 267 265 264 263 262 261 260 258 257 256 254 253 252 252 251 250 249 248 248 248 249 249 250 251 251 251 252 252 250 249 249 249 246 245 248 248 249 250 251 253 255 256 259 262 264 267 267 268 271 275 276 276 278 272 262 260 262 258 252 248 247 250 253 255 256 256 255 255 254 251 251 259 270 278 282 286 289 292 297 301 304 308 311 313
269 267 265 263 262 262 261 260 259 257 255 254 252 251 251 250 250 249 248 248 248 249 249 250 251 251 251 251 250 249 249 247 244 243 246 249 251 254 255 255 259 262 262 263 264 265 267 266 268 271 273 274 275 275 269 261 261 262 258 251 247 244 246 250 251 252 252 251 250 249 246 248 258 268 275 280 283 286 291 296 300 304 309 311 312
274 271 268 265 263 262 262 261 260 258 255 254 252 251 250 250 249 250 250 250 249 249 249 250 251 251 250 249 248 246 245 246 244 243 246 250 254 261 262 259 260 265 267 266 265 265 265 264 265 266 268 272 275 272 266 261 262 264 261 255 251 248 248 248 248 249 249 249 248 246 243 246 257 266 273 278 280 283 289 294 299 305 309 310 310
279 275 272 269 267 264 262 261 260 259 256 255 253 251 250 249 249 249 250 250 250 249 249 250 250 250 250 250 250 247 245 246 248 248 252 255 257 260 260 260 262 266 266 264 261 261 261 259 261 264 265 268 271 268 265 263 262 264 261 255 252 252 252 251 250 250 250 249 247 244 240 245 256 266 273 276 276 280 287 292 299 305 308 308 309
284 280 275 272 270 267 264 262 261 259 257 254 253 251 250 248 248 248 249 250 250 250 250 250 250 249 248 248 248 247 245 245 249 252 254 253 253 255 255 257 263 264 261 259 256 255 255 255 258 262 262 262 262 261 260 260 260 262 260 255 255 257 258 256 253 250 248 247 245 241 238 245 257 266 271 271 272 278 285 291 299 303 306 307 307
288 283 278 273 270 267 265 263 260 258 256 254 252 251 249 248 248 249 250 250 250 250 249 248 250 251 249 247 247 246 245 247 252 255 254 251 250 251 252 253 258 260 259 257 254 252 252 252 254 256 253 250 252 254 257 259 261 263 262 259 261 264 261 256 252 248 245 244 241 238 237 246 257 265 268 268 269 276 283 290 297 302 305 306 305
290 285 279 273 269 267 265 263 260 258 256 255 253 252 250 249 249 250 251 251 250 251 250 249 248 248 247 247 248 247 247 250 253 251 250 249 247 246 248 250 252 253 252 251 250 250 250 250 249 246 239 239 248 255 258 259 260 260 260 260 264 266 260 254 250 246 241 238 235 234 238 247 257 263 266 266 267 275 282 288 295 302 305 305 304
290 287 281 275 271 268 265 263 261 259 258 257 255 253 251 250 250 251 252 252 251 249 250 251 248 245 245 246 246 246 247 249 250 247 245 245 246 246 248 250 248 245 244 244 246 246 244 246 245 236 230 235 247 254 257 256 256 259 260 260 260 260 256 252 249 246 241 235 231 231 238 248 257 262 264 263 266 274 280 285 295 302 305 304 304
289 287 282 279 274 270 267 264 263 262 261 260 257 255 253 252 251 251 252 252 251 249 249 252 251 246 246 248 246 247 247 246 246 245 243 243 245 244 244 243 241 240 242 244 245 242 239 241 238 229 228 235 243 249 254 255 257 259 260 259 257 257 257 254 250 249 245 237 231 232 240 250 257 261 262 261 266 274 278 284 296 302 303 302 303
284 284 282 280 277 273 269 267 266 265 264 263 260 258 256 253 252 251 251 250 250 250 250 252 253 249 245 246 246 246 246 244 243 244 243 242 240 236 235 238 240 243 245 247 246 243 240 240 234 228 229 235 242 251 256 253 252 254 255 256 257 257 258 255 250 247 243 236 231 233 241 250 257 260 260 260 267 273 276 284 296 301 301 301 303
279 280 279 279 277 275 272 271 269 268 267 265 263 260 257 254 252 251 250 247 247 248 248 248 250 248 243 243 246 247 245 242 241 243 243 240 236 234 235 239 243 245 247 248 248 245 241 238 234 232 233 237 244 252 254 248 249 252 254 256 257 257 258 257 248 242 237 231 229 233 241 250 257 260 260 262 268 273 276 284 295 299 299 300 303
275 276 275 276 276 274 273 271 270 270 270 267 264 260 257 255 253 251 249 246 246 247 247 245 246 247 246 246 246 246 244 241 242 242 241 238 237 239 240 239 241 244 248 250 251 249 244 238 234 236 239 243 247 251 252 252 253 254 254 255 256 254 254 251 245 239 233 228 228 234 243 252 258 261 261 263 268 271 275 284 294 298 298 300 303
271 271 271 272 273 274 273 271 270 271 273 270 265 262 260 256 253 251 249 246 246 247 246 244 241 243 247 247 244 243 242 242 241 241 240 239 240 243 241 237 239 245 249 252 253 250 244 235 230 234 240 244 247 249 252 252 251 251 251 249 246 242 241 241 239 237 231 226 227 234 244 252 259 261 260 262 267 270 274 283 291 295 297 299 303
270 269 269 270 271 272 272 270 271 272 273 271 267 264 261 257 253 251 249 245 244 245 246 245 242 241 243 242 241 241 242 242 240 239 241 242 242 242 240 236 239 245 248 250 251 245 234 225 224 231 238 242 245 248 251 251 249 249 248 245 239 235 234 234 233 232 229 225 227 236 244 251 258 259 258 260 264 267 273 281 288 293 297 300 304
270 269 268 268 269 270 270 270 270 271 271 270 267 264 261 257 254 252 249 246 243 243 243 244 243 243 243 242 239 239 241 243 241 239 242 243 241 241 241 240 244 248 250 252 248 236 223 218 223 230 235 241 246 249 251 252 249 246 245 241 236 232 232 231 230 231 229 226 229 237 244 251 256 255 256 259 261 265 271 278 287 293 298 302 305
270 270 269 269 269 269 270 270 269 270 270 268 266 265 263 260 255 251 249 246 244 242 240 240 240 242 244 242 238 238 241 242 239 238 241 243 242 243 246 247 248 250 253 254 245 231 224 223 227 232 237 242 247 249 250 250 248 244 241 235 229 227 229 230 230 231 229 227 231 238 245 252 256 253 254 257 260 264 269 276 286 295 300 304 305